Retour au catalogue

THOR ABLESTAR DEB

ActifLEO
NORAD 5826·DEBRIS·🇺🇸 United States

Lancé Jun 29, 1961 depuis Cape Canaveral Space Force Station

Loading…

Prochains Passages (prochaines 24 heures)

TLE

FraisSource: Space-Track

Époque: Sep 13, 2026, 23:21 UTC

1 05826U 61015KE  26256.97309892  .00000391  00000-0  32459-3 0  9991
2 05826  66.6777  92.7759 0077903 203.4177 156.3350 13.97650356283136

Suivez THOR ABLESTAR DEB en temps réel avec AllMySat

Download on the App Store